Provincetown, MA

12:50 AM EDT on June 20, 2018 (GMT -0400)
Provincetown Municipal

Weather History for KPVC - November, 2017

Change the Weather History Date:

Tuesday, November 14, 2017

  Actual Average Record
Temperature  
Mean Temperature 46 °F -  
Max Temperature 48 °F 47 °F 70 °F (1951)
Min Temperature 43 °F 37 °F 32 °F (1996)
Degree Days  
Heating Degree Days 20    
Moisture  
Dew Point 34 °F    
Average Humidity 66    
Maximum Humidity 82    
Minimum Humidity 56    
Precipitation  
Precipitation 0.00 in - - ()
Sea Level Pressure  
Sea Level Pressure 30.28 in    
Wind  
Wind Speed 15 mph (NNE)    
Max Wind Speed 18 mph    
Max Gust Speed 26 mph    
Visibility 10 miles    
Events      
Averages and records for this station are not official NWS values.
T = Trace of Precipitation, MM = Missing Value Source: NWS Daily Summary

Daily Weather History Graph

Daily Weather History Graph

Search for Another Location

Airport or City:

Astronomy

Nov. 14, 2017 Rise Set
Actual Time 6:29 AM EST 4:20 PM EST
Civil Twilight 5:59 AM EST 4:50 PM EST
Nautical Twilight 5:26 AM EST 5:24 PM EST
Astronomical Twilight 4:53 AM EST 5:57 PM EST
Moon 2:22 AM EST (11/14) 2:47 PM EST (11/14)
Length of Visible Light 10h 50m
Length of Day
9h 50m
Waning Crescent, 14% of the Moon is Illuminated
Nov 14
Waning Crescent
Nov 18
New
Nov 26
First Quarter
Dec 3
Full
Dec 10
Last Quarter

Hourly Weather History & Observations

Time (EST) Temp. Windchill Dew Point Humidity Pressure Visibility Wind Dir Wind Speed Gust Speed Precip Events Conditions
12:13 AM 48.2 °F - 42.8 °F 82% 30.25 in 10.0 mi NE 16.1 mph 21.9 mph N/A   Overcast
12:56 AM 46.9 °F - 41.0 °F 80% 30.25 in 10.0 mi NE 16.1 mph 21.9 mph N/A   Overcast
1:56 AM 46.0 °F 39.3 °F 39.9 °F 79% 30.25 in 10.0 mi NE 16.1 mph - N/A   Overcast
2:56 AM 46.0 °F 39.9 °F 39.0 °F 76% 30.25 in 10.0 mi NNE 13.8 mph 21.9 mph 0.00 in   Overcast
3:56 AM 46.0 °F 40.2 °F 39.0 °F 76% 30.26 in 10.0 mi NE 12.7 mph 18.4 mph N/A   Overcast
4:56 AM 45.0 °F 37.9 °F 37.0 °F 74% 30.27 in 10.0 mi NNE 16.1 mph 26.5 mph 0.00 in   Overcast
5:10 AM 44.6 °F 36.9 °F 35.6 °F 71% 30.27 in 10.0 mi NNE 18.4 mph - N/A   Overcast
5:56 AM 44.1 °F 36.8 °F 35.1 °F 71% 30.27 in 10.0 mi NNE 16.1 mph 21.9 mph N/A   Overcast
6:56 AM 44.1 °F 36.5 °F 32.0 °F 63% 30.30 in 10.0 mi NNE 17.3 mph 21.9 mph N/A   Overcast
7:56 AM 44.1 °F 38.1 °F 33.1 °F 65% 30.32 in 10.0 mi NNE 11.5 mph - N/A   Overcast
8:56 AM 45.0 °F 38.2 °F 33.1 °F 63% 30.32 in 10.0 mi NNE 15.0 mph 20.7 mph N/A   Overcast
9:56 AM 45.0 °F 38.2 °F 30.0 °F 56% 30.32 in 10.0 mi NNE 15.0 mph 18.4 mph N/A   Overcast
10:56 AM 45.0 °F 37.9 °F 33.1 °F 63% 30.31 in 10.0 mi NNE 16.1 mph 21.9 mph N/A   Overcast
11:56 AM 46.0 °F 41.0 °F 32.0 °F 58% 30.29 in 10.0 mi NE 10.4 mph 19.6 mph N/A   Overcast
12:56 PM 45.0 °F 39.3 °F 33.1 °F 63% 30.29 in 10.0 mi NE 11.5 mph - N/A   Overcast
1:56 PM 45.0 °F 39.7 °F 32.0 °F 60% 30.28 in 10.0 mi NNE 10.4 mph - N/A   Overcast
2:56 PM 44.1 °F 37.7 °F 30.9 °F 60% 30.28 in 10.0 mi North 12.7 mph 18.4 mph N/A   Overcast
3:56 PM 44.1 °F 38.1 °F 33.1 °F 65% 30.29 in 10.0 mi North 11.5 mph - N/A   Overcast
4:56 PM 44.1 °F 38.1 °F 33.1 °F 65% 30.29 in 10.0 mi NNE 11.5 mph 19.6 mph N/A   Overcast
5:56 PM 44.1 °F 37.1 °F 32.0 °F 63% 30.29 in 10.0 mi NNE 15.0 mph 19.6 mph N/A   Overcast
6:56 PM 44.1 °F 37.1 °F 30.9 °F 60% 30.29 in 10.0 mi NNE 15.0 mph 18.4 mph N/A   Overcast
7:56 PM 44.1 °F 36.8 °F 30.9 °F 60% 30.29 in 10.0 mi NNE 16.1 mph - N/A   Overcast
8:56 PM 44.1 °F 37.7 °F 30.0 °F 58% 30.29 in 10.0 mi NNE 12.7 mph - N/A   Overcast
9:56 PM 44.1 °F 38.6 °F 30.0 °F 58% 30.29 in 10.0 mi NNE 10.4 mph - N/A   Overcast
10:56 PM 43.0 °F 36.4 °F 32.0 °F 65% 30.28 in 10.0 mi NNE 12.7 mph 19.6 mph N/A   Overcast
11:56 PM 43.0 °F 36.8 °F 30.9 °F 62% 30.28 in 10.0 mi NNE 11.5 mph - N/A   Overcast